This is the latest recevied weather packets stored in our database for station/object KE5VBO-1. If no packets are shown the sender has not sent any weather packets the latest 1 day(s).
| Time | Temp. | Humidity | Pressure | Rain* | Wind** | Luminosity | Snow |
|---|---|---|---|---|---|---|---|
| 1778085084 | 12.22° C | 1% | 1014.3 hPa | 0.25 mm | - | - | - |
| 1778081497 | 12.22° C | 1% | 1013.9 hPa | 0 mm | - | - | - |
| 1778080534 | 12.22° C | 1% | 1014.2 hPa | 0 mm | - | - | - |
| 1778077862 | 12.22° C | 1% | 1013.4 hPa | 0 mm | - | - | - |
| 1778076927 | 12.22° C | 1% | 1012.9 hPa | 0 mm | - | - | - |
| 1778076064 | 12.22° C | 1% | 1012.7 hPa | 0 mm | - | - | - |
| 1778075126 | 12.22° C | 1% | 1012.8 hPa | 0 mm | - | - | - |
| 1778074270 | 12.22° C | 1% | 1012.2 hPa | 0 mm | - | - | - |
| 1778073339 | 11.67° C | 1% | 1012 hPa | 0 mm | - | - | - |
| 1778072409 | 11.67° C | 1% | 1012 hPa | 0 mm | - | - | - |
| 1778071547 | 11.67° C | 1% | 1011.8 hPa | 0 mm | - | - | - |
| 1778067001 | 11.67° C | 1% | 1010.8 hPa | 0 mm | - | - | - |
| 1778065215 | 12.22° C | 1% | 1010.5 hPa | 0 mm | - | - | - |
| 1778063419 | 12.78° C | 1% | 1009.9 hPa | 0 mm | - | - | - |
| 1778062578 | 12.78° C | 1% | 1009.7 hPa | 0 mm | - | - | - |
| 1778061618 | 12.22° C | 1% | 1009.4 hPa | 0 mm | - | - | - |
| 1778058013 | 12.78° C | 1% | 1008.7 hPa | 0 mm | - | - | - |
| 1778057164 | 12.78° C | 1% | 1008.7 hPa | 0 mm | - | - | - |
| 1778055344 | 13.33° C | 1% | 1008.6 hPa | 0 mm | - | - | - |
| 1778054474 | 13.33° C | 1% | 1008.1 hPa | 0 mm | - | - | - |
| 1778053550 | 13.89° C | 1% | 1008 hPa | 0 mm | - | - | - |
| 1778051742 | 13.89° C | 1% | 1008.1 hPa | 0 mm | - | - | - |
| 1778049938 | 13.89° C | 1% | 1008.2 hPa | 0 mm | - | - | - |
| 1778049080 | 13.89° C | 1% | 1008.4 hPa | 0 mm | - | - | - |
| 1778048143 | 13.89° C | 1% | 1008.3 hPa | 0 mm | - | - | - |
* Rain latest hour (hover to see other rain measurements)
** Current wind speed in m/s (hover to see current wind gust speed)